Weather History for West Plains, MO

Change the Weather History Date:

Wednesday, August 21, 2013

  Actual Average Record
Temperature  
Mean Temperature 75 °F 77 °F  
Max Temperature 87 °F 89 °F 101 °F (2010)
Min Temperature 62 °F 65 °F 47 °F (1950)
Degree Days  
Heating Degree Days 0 0  
Month to date heating degree days 4 0  
Since 1 June heating degree days 13 5  
Since 1 July heating degree days 4 0  
Cooling Degree Days 10 12  
Month to date cooling degree days 159 269  
Year to date cooling degree days 693 1062  
Since 1 June cooling degree days 581 940  
Growing Degree Days 24 (Base 50)    
Moisture  
Dew Point 65 °F    
Average Humidity 73    
Maximum Humidity 100    
Minimum Humidity 45    
Precipitation  
Precipitation 0.00 in 0.11 in 2.87 in (1964)
Month to date precipitation 10.62 2.17  
Year to date precipitation 42.23 29.01  
Sea Level Pressure  
Sea Level Pressure 30.10 in    
Wind  
Wind Speed 2 mph (SSW)    
Max Wind Speed 9 mph    
Max Gust Speed 13 mph    
Visibility 9 miles    
Events      
T = Trace of Precipitation, MM = Missing Value Source: NWS Daily Summary

Daily Weather History Graph

Daily Weather History Graph

Search for Another Location

Airport:

Trip Planner

Search our weather history database for the weather conditions in past years. The results will help you decide how hot, cold, wet, or windy it might be!

Date:

Astronomy

Aug. 21, 2013 Rise Set
Actual Time 6:29 AM CDT 7:50 PM CDT
Civil Twilight 6:02 AM CDT 8:17 PM CDT
Nautical Twilight 5:30 AM CDT 8:50 PM CDT
Astronomical Twilight 4:56 AM CDT 9:24 PM CDT
Moon 8:03 PM CDT 7:07 AM CDT
Length of Visible Light 14h 15m
Length of Day
13h 21m
Waxing Gibbous, 99% of the Moon is Illuminated
Aug 21
Waxing Gibbous
Aug 28
Last Quarter
Sep 5
New
Sep 12
First Quarter
Sep 19
Full

Hourly Weather History & Observations

Time (CDT) Temp. Heat Index Dew Point Humidity Pressure Visibility Wind Dir Wind Speed Gust Speed Precip Events Conditions
12:53 AM 66.9 °F - 64.0 °F 90% 30.08 in 10.0 mi Calm Calm - N/A   Clear
1:53 AM 66.0 °F - 64.0 °F 93% 30.08 in 9.0 mi Calm Calm - N/A   Clear
2:53 AM 64.0 °F - 63.0 °F 96% 30.08 in 9.0 mi Calm Calm - N/A   Clear
3:53 AM 64.0 °F - 62.1 °F 93% 30.09 in 8.0 mi Calm Calm - N/A   Clear
4:53 AM 64.0 °F - 62.1 °F 93% 30.09 in 10.0 mi Calm Calm - N/A   Clear
5:53 AM 63.0 °F - 61.0 °F 93% 30.10 in 6.0 mi Calm Calm - N/A   Clear
6:53 AM 63.0 °F - 62.1 °F 97% 30.12 in 5.0 mi Calm Calm - N/A   Clear
7:53 AM 69.1 °F - 66.9 °F 93% 30.13 in 9.0 mi Calm Calm - N/A   Clear
8:53 AM 75.9 °F - 68.0 °F 76% 30.14 in 10.0 mi SSW 4.6 mph - N/A   Clear
9:53 AM 79.0 °F - 68.0 °F 69% 30.14 in 10.0 mi SSE 5.8 mph - N/A   Clear
10:53 AM 80.1 °F 82.7 °F 68.0 °F 67% 30.15 in 10.0 mi South 8.1 mph - N/A   Clear
11:53 AM 82.0 °F 84.5 °F 66.9 °F 60% 30.15 in 10.0 mi South 6.9 mph - N/A   Partly Cloudy
12:53 PM 82.0 °F 84.1 °F 66.0 °F 58% 30.14 in 10.0 mi SW 5.8 mph - N/A   Mostly Cloudy
1:53 PM 82.9 °F 85.0 °F 66.0 °F 56% 30.12 in 10.0 mi Variable 3.5 mph - N/A   Mostly Cloudy
2:53 PM 86.0 °F 86.3 °F 62.1 °F 44% 30.10 in 10.0 mi WNW 4.6 mph - N/A   Clear
3:53 PM 86.0 °F 87.3 °F 64.0 °F 48% 30.08 in 10.0 mi Calm Calm - N/A   Clear
4:53 PM 86.0 °F 87.3 °F 64.0 °F 48% 30.07 in 10.0 mi Variable 4.6 mph - N/A   Clear
5:53 PM 84.9 °F 86.1 °F 64.0 °F 49% 30.07 in 10.0 mi Calm Calm - N/A   Clear
6:53 PM 82.0 °F 84.1 °F 66.0 °F 58% 30.07 in 10.0 mi SW 3.5 mph - N/A   Clear
7:53 PM 78.1 °F - 69.1 °F 74% 30.06 in 10.0 mi Calm Calm - N/A   Clear
8:53 PM 73.0 °F - 69.1 °F 87% 30.07 in 9.0 mi Calm Calm - N/A   Clear
9:53 PM 71.1 °F - 68.0 °F 90% 30.09 in 9.0 mi Calm Calm - N/A   Clear
10:53 PM 70.0 °F - 66.9 °F 90% 30.09 in 9.0 mi Calm Calm - N/A   Clear
11:53 PM 71.1 °F - 66.9 °F 87% 30.10 in 10.0 mi Calm Calm - N/A   Clear